Home > Weather > Saint George's > Past weeks

Flag for Grenada Weather for the Past 2 Weeks in Saint George's, Grenada

Now
79 °F

Light rain. Broken clouds.


Feels Like: 82 °F
Forecast: 77 / 82 °F
Wind: 14 mph from East

Location: Point Salines Airport

Current Time: May 3, 2016 at 8:51:52 AM

Latest Report: May 3, 2016 at 8:00 AM


Visibility: N/A

Pressure: 30.01 "Hg

Humidity: 84%

Dew Point: 73 °F

Location of Saint George'sLocation

Historic Weather in Saint George's — Graph

°F

Saint George's Temperature Yesterday

Maximum temperature yesterday: 84 °F (at 10:00 AM)
Minimum temperature yesterday: 79 °F (at 2:00 AM)
Average temperature yesterday: 81 °F

High & Low Weather Summary for the Past Weeks

 TemperatureHumidityPressure
High88 °F (Apr 21, 12:00 PM)100% (Apr 30, 11:00 PM)30.01 "Hg (Apr 30, 11:00 PM)
Low72 °F (May 1, 2:00 AM)62% (May 1, 2:00 PM)29.77 "Hg (Apr 25, 5:00 PM)
Average83 °F81%29.89 "Hg
* Reported Apr 18 7:00 AM — May 3 7:00 AM, Saint George's, Weather by CustomWeather, © 2016

Note: Actual official high and low records may vary slightly from our data, if they occured in-between our weather recording intervals... More about our weather records

Advertising

Saint George's Weather History for the Previous 24 Hours

Scroll right to see more
 ConditionsComfort  
Time TempWeatherWind HumidityBarometerVisibility
7:00 AM
Tue, May 3
81 °FBroken clouds.13 mph89%29.98 "HgN/A
6:00 AM81 °FPartly sunny.12 mph84%29.98 "HgN/A
5:00 AM81 °FPartly cloudy.9 mph84%29.95 "HgN/A
3:00 AM81 °FPassing clouds.9 mph84%29.92 "HgN/A
1:00 AM81 °FPassing clouds.12 mph84%29.95 "HgN/A
11:00 PM
Mon, May 2
81 °FPassing clouds.8 mph89%30.01 "HgN/A
10:00 PM81 °FPassing clouds.9 mph89%30.01 "HgN/A
9:00 PM81 °FPassing clouds.6 mph89%29.98 "HgN/A
8:00 PM81 °FPartly cloudy.9 mph89%29.98 "HgN/A
7:00 PM79 °FSprinkles. Partly cloudy.9 mph94%29.95 "HgN/A
6:00 PM81 °FBroken clouds.12 mph79%29.95 "HgN/A
5:00 PM81 °FPartly sunny.8 mph84%29.92 "HgN/A
4:00 PM84 °FBroken clouds.18 mph79%29.92 "HgN/A
3:00 PM84 °FScattered clouds.15 mph74%29.92 "HgN/A
2:00 PM84 °FScattered clouds.16 mphN/A29.95 "HgN/A
1:00 PM84 °FPartly sunny.18 mph74%29.98 "HgN/A
12:00 PM84 °FBroken clouds.18 mph74%29.98 "HgN/A
11:00 AM84 °FPartly sunny.14 mph70%29.98 "HgN/A
10:00 AM84 °FScattered clouds.14 mph62%29.98 "HgN/A
9:00 AM82 °FScattered clouds.12 mph66%29.98 "HgN/A
8:00 AM81 °FScattered clouds.7 mph70%29.98 "HgN/A
Weather by CustomWeather, © 2016

See weather overviewHow to use our weather pages